Regional Weather Roundup
Issued by NWS

Home | Current Version | Previous Version | Graphics & Text | Print | Product List | Glossary On
Versions: 1 2 3 4 5 6 7 8 9 10 11 12 13 14 15 16 17 18 19 20 21 22 23 24 25 26 27 28 29 30 31 32 33 34 35 36 37 38 39 40 41 42 43 44 45 46 47 48 49 50
000
ASUS43 KLOT 260609
RWRIL

ILLINOIS REGIONAL WEATHER ROUNDUP
NATIONAL WEATHER SERVICE CHICAGO/ROMEOVILLE IL
100 AM CDT FRI MAY 26 2017

NOTE: "FAIR" INDICATES FEW OR NO CLOUDS BELOW 12,000 FEET WITH NO
SIGNIFICANT WEATHER AND/OR OBSTRUCTIONS TO VISIBILITY.

* THESE STATIONS ARE NOT UNDER NWS QUALITY CONTROL. THEY ALSO MAY NOT
  REPORT WEATHER SUCH AS PRECIPITATION OR FOG.

ILZ001-002-007-009-015-016-024-260700-
NORTHWEST ILLINOIS

CITY           SKY/WX    TMP DP  RH WIND       PRES   REMARKS
MOLINE         CLOUDY    60  54  80 SE9       29.76R
6HR MIN TEMP:  57; 6HR MAX TEMP:  72;

STERLING*      CLOUDY    56  55  97 CALM      29.79R FOG
SAVANNA*       MOCLDY    57  54  91 SE3       29.78R
$$

ILZ003-004-008-010-011-017-018-260700-
NORTH CENTRAL ILLINOIS

CITY           SKY/WX    TMP DP  RH WIND       PRES   REMARKS
ROCKFORD       LGT RAIN  56  53  90 CALM      29.79R
6HR MIN TEMP:  55; 6HR MAX TEMP:  70; 6HR PCP: TRACE;

FREEPORT*      CLOUDY    57  55  92 SW5       29.79S
ROCHELLE*      CLEAR     54  53  96 CALM      29.79S
DE KALB*       CLOUDY    54  52  93 SE3       29.79S
PERU*          CLEAR     57  53  88 S5        29.79S
$$

ILZ005-006-012>014-019>023-260700-
NORTHEAST ILLINOIS

CITY           SKY/WX    TMP DP  RH WIND       PRES   REMARKS
CHICAGO-OHARE  PTCLDY    54  49  83 CALM      29.77F
6HR MIN TEMP:  52; 6HR MAX TEMP:  65;

CHICAGO-MIDWAY PTCLDY    55  51  86 CALM      29.78S
6HR MIN TEMP:  54; 6HR MAX TEMP:  64;

AURORA         CLOUDY    57  53  86 SE3       29.79S
6HR MIN TEMP:  55; 6HR MAX TEMP:  69;

LANSING*       CLEAR     49  49 100 CALM      29.80S FOG
JOLIET*        CLEAR     55  54  96 CALM      29.79F
WAUKEGAN       CLEAR     49  48  97 CALM      29.77F FOG
6HR MIN TEMP:  49; 6HR MAX TEMP:  61;

DUPAGE AIRPORT CLOUDY    55  53  93 CALM      29.79R
6HR MIN TEMP:  53; 6HR MAX TEMP:  65;

KANKAKEE*      CLOUDY    53  51  93 CALM      29.81S
WHEELING       CLEAR     50  50 100 CALM      29.79S
6HR MIN TEMP:  50; 6HR MAX TEMP:  63;

MORRIS*        CLEAR     56  54  93 CALM      29.78S
ROMEOVILLE*    CLEAR     54  54 100 SE3       29.79S
NORTHERLY ISL    N/A     56  50  80 CALM        N/A
$$

LMZ740>746-260700-
SOUTHERN LAKE MICHIGAN

STATION/POSITION SKY/WX   TEMP    WIND        PRES    VSBY  WAVE
                          AIR SEA DIR/SP/G                  HT/PER
                          (F)     (DEG/KT/KT) (MB)    (MI)  (FT/S)
SOUTHERN BUOY              48 45  350/ 10/ 10 1007.7          2/ 5
WILMETTE HARBOR            52 51                N/A           2/ 5
HARRISON CRIB              58     320/  7/  7   N/A
BURNHAM HARBOR             56      CALM  /  5   N/A
CALUMET HARBOR             55     210/  1/  2 1008.4R
BURNS HARBOR               55     290/  5/  8 1009.5R
MICHIGAN CITY              52     250/  8/  9   N/A
MICHIGAN CITY 6N           51 51  250/  6/  8   N/A           2/ 5
ST. JOSEPH                 51 55  270/  6/  8 1008.8          3/ 5
$$

ILZ025>027-034>036-040-047-049-050-058-095>099-260700-
WEST-CENTRAL ILLINOIS

CITY           SKY/WX    TMP DP  RH WIND       PRES   REMARKS
QUINCY         CLOUDY    64  53  67 S5        29.77R
GALESBURG*     CLOUDY    59  56  90 E3        29.77S
MACOMB*        CLOUDY    60  56  88 S3        29.80R
JACKSONVILLE*  PTCLDY    61  54  77 SE7       29.76F
PITTSFIELD*    CLOUDY    63  56  76 CALM      29.79R
$$

ILZ028>032-037-038-041>044-048-051>054-059>061-260700-
CENTRAL ILLINOIS

CITY           SKY/WX    TMP DP  RH WIND       PRES   REMARKS
PONTIAC        CLEAR     54  53  98 CALM      29.80S FOG
BLOOMINGTON    CLEAR     54  52  93 S8        29.82S
DECATUR        CLEAR     58  55  90 SE5       29.80F
PEORIA         PTCLDY    59  56  89 SE3       29.79S
6HR MIN TEMP:  57; 6HR MAX TEMP:  69;

LACON*         CLEAR     54  53  97 CALM      29.78F
LINCOLN*       CLEAR     59  57  93 SE6       29.79F
SPRINGFIELD    PTCLDY    58  55  90 SE5       29.78F
6HR MIN TEMP:  58; 6HR MAX TEMP:  73;

TAYLORVILLE    CLEAR     56  55  94 SE3       29.79F
6HR MIN TEMP:  56; 6HR MAX TEMP:  71;

$$

ILZ033-039-045-046-055>057-062-063-260700-
EAST-CENTRAL ILLINOIS

CITY           SKY/WX    TMP DP  RH WIND       PRES   REMARKS
CHAMPAIGN      CLOUDY    55  52  89 SE5       29.82S
RANTOUL*       CLEAR     55  54  95 CALM      29.82S FOG
MATTOON        CLEAR     56  56 100 SE3       29.81S FOG
PARIS*         CLEAR     53  53 100 CALM      29.83S
$$

ILZ079-100>102-260700-
SOUTHWEST ILLINOIS

CITY           SKY/WX    TMP DP  RH WIND       PRES   REMARKS
ALTON          PTCLDY    58  55  88 SE5       29.78F
BELLEVILLE     CLOUDY    56  55  93 SE6       29.80F
CAHOKIA*       MOCLDY    61  53  75 S5        29.78F
SPARTA*        PTCLDY    63  53  71 S5        29.82S
$$

ILZ064>066-069>071-074>076-080>082-084>086-088>090-092>094-260700-
SOUTH-CENTRAL ILLINOIS

CITY           SKY/WX    TMP DP  RH WIND       PRES   REMARKS
CARBONDALE     CLEAR     58  56  93 SE3       29.82S
6HR MIN TEMP:  58; 6HR MAX TEMP:  73;

CAIRO*         CLEAR     64  54  71 S5        29.83R
EFFINGHAM*     CLEAR     56  56 100 CALM      29.84S
MARION         CLEAR     59  54  82 S3        29.84R
MT. VERNON       N/A     52  52 100 CALM      29.83R FOG
CENTRALIA*     CLEAR     58  57  96 CALM      29.81S
SALEM*         CLEAR     59  55  87 CALM      29.83R
METROPOLIS*    CLEAR     56  53  88 CALM      29.85R
$$

ILZ067-068-072-073-078-083-087-091-260700-
SOUTHEAST ILLINOIS

CITY           SKY/WX    TMP DP  RH WIND       PRES   REMARKS
LAWRENCEVILLE  CLEAR     58  57  97 CALM      29.83R FOG
FLORA*         CLEAR     58  56  92 CALM      29.84R
FAIRFIELD*     CLEAR     57  56  96 CALM      29.82R
HARRISBURG*    CLEAR     56  54  92 CALM      29.84S
ROBINSON*      CLEAR     55  55 100 CALM      29.84S FOG
CARMI*         CLEAR     56  55  96 CALM      29.83S
$$

ABBREVIATIONS USED IN REMARKS
   TC - TEMPERATURE IN CELSIUS
  WCI - WIND CHILL INDEX
   HX - HEAT INDEX
  VSB - VISIBILITY
$$





USA.gov is the U.S. government's official web portal to all federal, state and local government web resources and services.